Regional Weather Roundup
Issued by NWS

Home | Current Version | Previous Version | Text Only | Print | Product List | Glossary On
Versions: 1 2 3 4 5 6 7 8 9 10 11 12 13 14 15 16 17 18 19 20 21 22 23 24 25 26 27 28 29 30 31 32 33 34 35 36 37 38 39 40 41 42 43 44 45 46 47 48 49 50
000
ASUS43 KLMK 270602
RWRKY
KENTUCKY REGIONAL WEATHER ROUNDUP
NATIONAL WEATHER SERVICE LOUISVILLE KY
200 AM EDT SAT MAY 27 2017

NOTE "FAIR" INDICATES FEW OR NO CLOUDS BELOW 12,000 FEET
WITH NO SIGNIFICANT WEATHER AND/OR OBSTRUCTIONS TO VISIBILITY.

KYZ001>023-026-027-061>063-070>075-270700-
WESTERN AND SOUTH CENTRAL KENTUCKY

CITY           SKY/WX    TMP DP  RH WIND       PRES   REMARKS
PADUCAH        CLOUDY    73  67  81 CALM      29.86F
HENDERSON      MOCLDY    70  68  93 SW5       29.86F
OWENSBORO      CLOUDY    73  67  81 W5        29.87S
HOPKINSVILLE   CLOUDY    74  62  65 S5        29.89S
BOWLING GREEN  CLOUDY    76  62  62 SW8       29.90F
GLASGOW        NOT AVBL
$$

KYZ024-025-028>034-038-045-046-053-270700-
NORTH CENTRAL KENTUCKY

CITY           SKY/WX    TMP DP  RH WIND       PRES   REMARKS
LOUISVILLE/SDF MOCLDY    76  62  62 SW8       29.85S
LOUISVILLE/LOU MOCLDY    76  64  66 SW6       29.85S
FORT KNOX      MOCLDY    72  62  71 SW6       29.86R
$$

KYZ035>037-039>044-047>052-055>060-089>105-270700-
NORTHEAST KENTUCKY

CITY           SKY/WX    TMP DP  RH WIND       PRES   REMARKS
LEXINGTON      CLOUDY    73  61  65 S12       29.88F
COVINGTON      MOCLDY    70  63  78 S6        29.83R
FRANKFORT      CLOUDY    73  61  65 SW8       29.85F
$$

KYZ054-064>069-076>088-106>120-270700-
SOUTHEAST KENTUCKY

CITY           SKY/WX    TMP DP  RH WIND       PRES   REMARKS
JACKSON        CLOUDY    68  59  73 CALM      29.94F
LONDON         CLOUDY    68  59  73 CALM      29.94F
SOMERSET       CLOUDY    70  59  68 CALM      29.94S
MIDDLESBORO    CLOUDY    64  63  95 CALM      29.99F
MONTICELLO     PTCLDY    72  61  68 SW13      29.95F
$$




USA.gov is the U.S. government's official web portal to all federal, state and local government web resources and services.